SCP
0 0 0 0 0 0 0 0 0 0 0 0 0 0 0 0 -0 -0 0 0 0 0 0 0 0 0 0 0 0 0 0 0 0 0 0 0 0 0 0 0 0 0 0 0
0 0 0 0 0 0 0 0 0 0 0 0 0 0 0 0 -0 0 0 0 0 0 0 0 0 0 0 0 0 0 0 0 0 0 0 0 0 0 0 0 0 0 0 0
0 0 0 0 0 0 0 0 0 0 0 0 0 0 0 0 0 0 0 0 0 0 0 0 0 0 0 0 0 0 0 0 0 0 0 0 0 0 0 0 0 0 0 0
0 0 0 0 0 0 0 0 0 0 0 0 0 0 0 0 0 0 0 0 0 0 0 0 0 0 0 0 0 0 0 0 0 0 0 0 0 0 0 0 0 0 0 0
0 0 0 0 0 0 0 0 0 0 0 0 0 0 0 0 0 0 0 0 -0 -0 -0 -0 -0 0 0 0 0 0 0 0 0 0 0 0 0 0 0 0 0 0 0 0
0 0 0 0 0 0 0 0 0 0 0 0 0 0 0 0 0 0 0 0 -0 -0 -0 -0 -0 -0 -0 0 0 0 0 0 0 0 0 0 0 0 0 0 0 0 0 0
0 0 0 0 0 0 0 0 0 0 0 0 0 0 0 0 0 0 0 0 -0 -0 -0 -0 -0 -0 -0 -0 0 -0 -0 -0 -0 0 0 0 0 0 0 0 0 0 0 0
0 0 0 0 0 0 0 0 0 0 0 0 0 0 0 0 0 0 0 0 0 -0 -0 -0 -0 -0 -0 -0 -0 -0 -0 -0 -0 -0 -0 0 0 0 0 0 0 0 0 0
0 0 0 0 0 0 0 0 0 0 0 0 0 0 0 0 0 0 0 0 0 0 0 -0 -0 -0 -0 -0 -0 -0 -0 -0 -0 -0 -0 -0 0 0 0 0 0 0 0 0
0 0 0 0 0 0 0 0 0 0 0 0 0 0 0 0 0 0 0 0 0 0 0 0 0 0 0 0 0 0 -0 -0 -0 -0 -0 -0 -0 -0 0 0 0 0 0 0
0 0 0 0 0 0 0 0 0 0 0 0 0 0 0 0 0 0 0 0 0 0 0 0 0 0 0 0 0 0 0 0 0 0 0 0 0 0 0 0 0 0 0 0
0 0 0 0 0 0 0 0 0 0 0 0 0 0 0 0 0 0 0 0 0 0 0 0 0 0 0 0 0 0 0 0 0 0 0 0 0 0 0 0 0 0 0 0
0 0 0 0 0 0 0 0 0 0 0 0 0 0 0 0 0 0 0 0 0 0 0 0 0 0 0 0 0 0 0 0 0 0 0 0 0 0 0 0 0 0 0 0
0 0 0 0 0 0 0 0 0 0 0 0 0 0 0 0 0 0 0 0 0 0 0 0 0 0 0 0 0 0 0 0 0 0 0 0 0 0 0 0 0 0 0 0
0 0 0 0 0 0 0 0 0 0 0 0 0 0 0 0 0 0 0 0 0 0 0 0 0 0 0 0 0 0 0 0 0 0 0 0 0 0 0 0 0 0 0 0
0 0 0 0 0 0 0 0 0 0 0 0 0 0 0 0 0 0 0 0 0 0 0 0 0 0 0 0 0 0 0 0 0 0 0 0 0 0 0 0 0 0 0 0
0 0 0 0 0 0 0 0 0 0 0 0 0 0 0 0 0 0 0 0 0 0 0 0 0 0 0 0 0 0 0 0 0 0 0 0 0 0 0 0 0 0 0 0
0 0 0 0 0 0 0 0 0 0 0 0 0 0 0 0 0 0 0 0 0 0 0 0 0 0 0 0 0 0 0 0 0 0 0 0 0 0 0 0 0 0 0 0
0 0 0 0 0 0 0 0 0 0 0 0 0 0 0 0 0 0 0 0 0 0 0 0 0 0 0 0 0 0 0 0 0 0 0 0 0 0 0 0 0 0 0 0
0 0 0 0 0 0 0 0 0 0 0 0 0 0 0 0 0 0 0 0 0 0 0 0 0 0 0 0 0 0 0 0 0 0 0 0 0 0 0 0 0 0 0 0
0 0 0 0 0 0 0 0 0 0 0 0 0 0 0 0 0 0 0 0 0 0 0 0 0 0 0 0 0 0 0 0 0 0 0 0 0 0 0 0 0 0 0 0
0 0 0 0 0 0 0 0 0 0 0 0 0 0 0 0 0 0 0 0 0 0 0 0 0 0 0 0 0 0 0 0 0 0 0 0 0 0 0 0 0 0 0 0
0 0 0 0 0 0 0 0 0 0 0 0 0 0 0 0 0 0 0 0 0 0 0 0 0 0 0 0 0 0 0 0 0 0 0 0 0 0 0 0 0 0 0 0
0 0 0 0 0 0 0 0 0 0 0 0 0 0 0 0 0 0 0 0 0 0 0 0 0 0 0 0 0 0 0 0 0 0 0 0 0 0 0 0 0 0 0 0
0 0 0 0 0 0 0 0 0 0 0 0 0 0 0 0 0 0 0 0 0 0 0 0 0 0 0 0 0 0 0 0 0 0 0 0 0 0 0 0 0 0 0 0
0 0 0 0 0 0 0 0 0 0 0 0 0 0 0 0 0 0 0 0 0 0 0 0 0 0 0 0 0 0 0 0 0 0 0 0 0 0 0 0 0 0 0 0
0 0 0 0 0 0 0 0 0 0 0 0 0 0 0 0 0 0 0 0 0 0 0 0 0 0 0 0 0 0 0 0 0 0 0 0 0 0 0 0 0 0 0 0
Wind_Speed
1 2 4 5 9 12 11 8 7 5 5 8 7 8 8 7 6 5 5 5 6 7 7 8 8 9 9 9 10 10 10 10 10 10 9 9 9 9 9 8 8 8 9 9
1 2 4 6 10 13 13 13 13 11 11 10 7 5 6 6 5 4 4 4 5 6 7 8 8 8 9 9 9 9 9 9 9 9 10 10 10 10 10 10 10 10 10 10
2 2 3 9 12 16 11 11 11 14 10 7 7 7 7 5 3 2 2 3 4 5 6 6 7 7 8 8 7 8 8 9 9 9 10 10 10 10 10 10 11 11 11 11
2 3 7 1 2 8 13 13 13 11 11 10 10 8 4 2 1 0 1 2 3 4 5 5 5 6 6 6 7 8 8 8 8 9 9 9 10 10 10 9 10 10 11 11
2 4 7 4 5 7 8 7 12 15 14 12 7 5 3 3 2 2 2 2 2 3 3 4 5 5 5 6 7 8 8 8 8 8 8 9 9 9 9 9 10 9 10 11
4 4 5 1 3 5 5 4 4 8 9 7 3 4 2 6 5 4 3 3 2 3 3 4 5 5 6 7 7 8 7 7 7 8 8 9 9 9 8 9 9 9 10 9
6 6 7 2 4 7 5 3 4 4 5 4 5 3 4 8 6 5 5 4 3 3 3 3 4 5 6 7 7 6 6 7 8 8 8 8 8 8 8 8 9 9 9 7
7 8 7 5 8 7 0 2 1 2 3 4 4 3 6 7 7 7 6 5 5 4 3 3 3 5 6 5 4 5 6 7 7 7 7 6 8 7 7 7 8 7 6 6
7 6 1 4 4 1 0 2 2 3 3 4 4 6 8 8 8 8 7 7 6 5 4 3 3 4 5 4 5 5 7 7 7 7 7 6 6 6 5 5 4 4 4 3
6 7 5 5 4 3 2 3 3 3 3 5 6 6 8 8 9 9 8 7 7 7 6 5 4 4 5 5 5 6 7 7 6 6 6 6 5 4 4 3 3 3 2 2
7 5 3 4 4 2 1 2 2 3 4 5 6 7 9 9 10 9 8 8 7 7 7 7 6 5 5 6 6 7 7 6 5 5 5 5 5 5 4 4 4 3 2 2
7 6 5 4 3 1 2 3 4 4 4 5 6 7 8 9 9 9 9 9 8 8 8 8 7 6 6 6 6 7 6 5 4 4 3 3 4 5 7 6 7 5 3 2
2 2 2 1 0 1 3 5 6 6 6 5 6 6 8 8 9 10 10 10 10 9 8 8 8 7 7 6 6 5 6 5 4 3 3 3 2 2 2 3 5 5 5 4
2 2 2 1 0 4 6 6 6 5 5 5 4 5 7 8 9 11 11 10 9 9 8 8 8 7 7 7 6 6 5 5 4 3 3 2 2 1 0 1 1 1 2 4
3 1 2 3 5 5 5 5 5 5 4 4 4 6 8 9 10 10 9 9 9 9 9 8 8 8 7 7 7 6 5 4 4 3 3 2 2 1 1 1 2 2 2 2
2 1 2 4 5 5 5 5 6 6 5 5 6 7 8 8 8 8 9 10 10 11 10 9 8 8 8 7 7 5 4 6 5 3 3 2 2 2 2 2 2 3 3 3
2 2 2 3 5 6 7 7 7 8 7 7 7 6 7 7 8 8 9 9 8 8 8 9 8 8 8 8 7 5 5 6 6 4 3 3 2 2 2 2 2 3 3 4
2 2 4 6 7 8 9 8 8 8 7 7 6 6 8 9 10 9 9 8 7 6 7 7 8 8 8 8 6 5 5 5 4 3 3 3 3 2 2 2 3 4 4 4
1 2 4 5 6 7 8 8 8 8 6 5 6 7 8 8 8 8 8 9 9 9 8 7 12 10 8 9 8 5 5 5 4 3 3 4 3 2 2 3 3 4 4 4
1 2 3 4 5 5 6 7 7 6 4 3 4 5 6 6 6 7 8 8 7 5 7 9 10 8 8 9 9 5 5 5 5 4 4 3 3 2 2 3 4 4 4 5
2 3 4 4 5 5 6 6 6 4 2 1 3 4 5 5 6 7 7 6 5 6 8 13 9 7 7 8 10 5 5 5 5 4 4 3 3 3 3 3 4 4 4 5
2 3 4 5 5 5 5 5 5 4 2 1 1 2 3 5 6 6 6 4 5 9 8 8 7 9 11 11 6 6 6 5 5 4 4 3 3 3 3 4 4 4 5 5
2 3 4 5 5 5 5 5 6 4 3 2 1 2 3 4 4 5 5 4 5 11 8 7 10 15 16 9 6 6 6 6 5 4 4 3 3 3 3 4 4 5 5 5
2 3 3 4 4 4 5 6 6 5 4 3 2 2 2 3 3 3 2 6 10 12 7 10 15 17 16 7 6 6 6 5 5 4 4 3 3 3 4 4 5 5 5 7
2 2 3 4 4 4 5 6 5 5 5 3 3 2 1 2 2 3 3 5 9 10 7 11 17 18 11 6 7 6 6 5 5 4 4 4 3 3 4 4 5 5 6 6
2 2 2 3 3 3 4 4 4 4 4 4 3 2 2 1 1 2 2 4 7 9 7 7 9 12 8 7 6 6 5 5 5 5 4 4 4 4 4 5 7 6 6 6
2 2 2 2 2 3 3 3 4 4 4 4 4 3 2 2 1 2 3 3 4 5 6 6 7 7 7 6 6 6 5 4 4 4 4 4 4 4 4 6 5 5 6 6
Wind_Direction
95 111 162 201 199 197 207 215 223 233 250 267 288 306 315 323 332 338 351 359 4 3 4 3 2 360 360 359 0 359 5 13 14 13 19 28 35 42 50 58 65 75 82 85
178 191 218 241 226 214 220 229 240 258 273 270 283 288 299 317 327 332 350 359 4 5 4 3 3 2 2 4 4 8 18 22 24 28 34 40 45 51 57 62 68 73 78 84
185 171 243 249 225 209 207 212 219 232 243 267 284 300 316 320 312 325 354 2 8 8 8 5 4 5 8 9 12 23 29 31 34 39 44 45 51 57 62 66 72 75 78 81
177 196 240 230 135 202 215 224 221 237 253 270 289 311 310 282 250 120 52 24 24 16 17 13 14 18 21 24 29 36 39 39 42 49 54 56 59 61 61 65 70 74 78 80
208 250 271 259 191 181 194 230 223 233 254 272 295 286 217 169 155 119 106 70 49 38 35 31 32 33 40 43 43 44 42 42 47 56 62 64 63 62 62 67 69 69 73 77
210 249 254 94 132 170 186 205 177 209 242 266 257 259 145 150 158 146 133 121 96 81 74 61 54 54 60 55 51 46 43 48 54 61 66 68 68 67 67 70 72 74 73 75
220 247 268 237 141 158 201 155 151 207 242 244 231 279 108 147 155 150 145 136 122 106 89 73 74 80 72 63 53 49 54 58 59 63 69 74 76 74 77 80 81 80 80 79
203 224 243 149 161 194 191 74 201 238 240 239 229 167 158 166 164 162 157 151 143 131 112 91 96 103 92 76 70 73 74 70 65 66 71 78 85 84 86 92 93 92 91 86
210 224 30 164 196 203 14 263 266 252 239 226 214 200 187 182 176 173 169 161 157 152 141 125 118 126 117 112 112 103 92 84 81 80 77 79 85 90 88 86 89 92 94 94
236 243 240 234 238 259 260 261 271 257 242 223 222 207 192 185 181 179 176 171 167 165 162 153 143 136 130 132 130 120 107 99 94 90 86 81 76 74 79 81 90 98 98 99
234 243 234 219 205 215 273 281 284 270 242 234 226 213 199 191 187 182 177 175 176 177 171 163 157 148 144 145 143 127 116 109 102 94 97 89 78 67 67 58 45 61 71 65
213 201 201 175 126 38 306 307 311 292 264 235 224 219 203 197 188 182 179 176 179 181 175 167 165 158 156 158 156 141 132 128 121 117 109 105 105 96 73 72 77 72 58 20
180 133 214 277 2 49 327 312 304 284 265 253 230 218 205 197 187 183 182 183 185 182 177 171 169 166 165 167 168 160 147 142 137 137 133 129 126 130 128 92 72 55 35 12
138 170 222 209 333 333 316 305 296 282 266 251 231 211 201 194 187 188 189 187 180 175 174 174 174 172 168 169 169 160 149 144 148 148 150 153 155 163 230 268 264 264 13 350
150 161 284 316 308 309 313 306 291 274 261 245 224 210 200 196 194 193 185 174 170 173 176 178 180 174 168 170 168 163 158 154 155 152 154 156 155 164 189 245 278 291 288 288
165 288 287 285 294 306 303 296 286 280 268 247 229 218 210 205 197 185 177 172 175 184 183 183 185 174 169 169 165 164 164 160 158 160 162 167 175 192 216 244 264 277 288 303
184 220 252 279 293 302 299 292 283 281 273 254 238 219 201 193 189 186 184 184 185 183 181 184 180 167 170 173 170 165 159 162 168 170 175 180 190 206 227 253 272 284 290 300
247 273 279 284 291 296 297 295 288 281 270 259 233 202 194 195 196 191 183 175 172 174 183 182 170 166 171 173 172 164 162 164 173 179 179 185 193 206 233 259 277 286 295 296
254 283 292 292 295 294 295 298 297 289 278 248 211 204 203 203 198 184 173 176 183 190 188 176 171 169 172 175 168 164 165 167 173 179 183 189 191 213 241 263 278 286 291 293
26 343 328 322 319 313 310 310 306 299 286 232 203 198 199 196 183 175 179 191 196 183 163 169 171 173 173 174 169 167 170 175 179 180 185 196 208 225 245 264 277 283 286 286
19 1 352 342 336 336 336 331 327 326 322 225 204 203 198 187 178 177 184 199 188 161 164 172 173 173 172 172 172 170 175 180 183 186 191 200 213 230 248 261 271 277 281 284
8 0 353 346 344 346 347 348 350 349 351 338 228 189 182 183 184 191 203 204 172 172 171 176 176 177 175 171 172 174 179 182 184 185 192 202 215 233 247 260 267 273 277 279
4 355 351 349 344 339 348 0 359 353 343 320 266 217 208 202 190 193 205 194 174 182 179 182 182 180 177 170 175 178 181 185 188 191 196 203 217 234 250 260 266 271 276 279
356 356 352 346 347 357 359 354 348 344 340 326 295 247 216 203 206 210 201 183 188 186 186 187 185 183 177 175 178 180 184 187 189 192 196 205 218 233 246 258 266 271 273 277
337 337 346 352 359 355 342 334 336 344 348 344 340 320 254 222 217 204 192 192 193 187 183 190 189 186 179 176 182 184 186 189 188 188 198 208 221 234 246 255 261 269 273 274
318 329 334 332 329 326 328 331 332 335 336 333 333 331 321 290 225 196 194 195 195 189 182 183 187 186 180 181 185 185 185 189 197 200 203 213 230 241 250 258 266 267 271 273
284 298 309 315 322 325 322 322 323 324 325 320 315 313 312 296 252 215 203 196 194 188 183 185 185 178 176 180 181 182 182 184 190 197 204 216 229 241 252 260 266 270 273 274